Regional Weather Roundup
Issued by NWS

Home | Current Version | Previous Version | Text Only | Print | Product List | Glossary Off
Versions: 1 2 3 4 5 6 7 8 9 10 11 12 13 14 15 16 17 18 19 20 21 22 23 24 25 26 27 28 29 30 31 32 33 34 35 36 37 38 39 40 41 42 43 44 45 46 47 48 49 50

000
ASUS43 KLOT 240206
RWRIL

ILLINOIS REGIONAL WEATHER ROUNDUP
NATIONAL WEATHER SERVICE CHICAGO/ROMEOVILLE IL
800 PM CST SUN NOV 23 2014

NOTE: "FAIR" INDICATES FEW OR NO CLOUDS BELOW 12,000 FEET WITH NO
SIGNIFICANT WEATHER AND/OR OBSTRUCTIONS TO VISIBILITY.

* THESE STATIONS ARE NOT UNDER NWS QUALITY CONTROL. THEY ALSO MAY NOT
  REPORT WEATHER SUCH AS PRECIPITATION OR FOG.

ILZ001-002-007-009-015-016-024-240300-
NORTHWEST ILLINOIS

CITY           SKY/WX    TMP DP  RH WIND       PRES   REMARKS
MOLINE         FOG       50  49  96 E3        29.23F VSB 3/4
STERLING*      CLOUDY    48  46  93 SE3       29.25F
SAVANNA*       LGT RAIN  49  47  94 SE5       29.24F
$$

ILZ003-004-008-010-011-017-018-240300-
NORTH CENTRAL ILLINOIS

CITY           SKY/WX    TMP DP  RH WIND       PRES   REMARKS
ROCKFORD       LGT RAIN  49  47  93 E7        29.27F FOG
FREEPORT*      DRIZZLE   46  46  98 E5        29.27F
ROCHELLE*      LGT RAIN  48  47  99 SE6       29.26F
DE KALB*       CLOUDY    47  47  98 SE7       29.27F
PERU*          RAIN      49  49  97 SE7       29.25F
$$

ILZ005-006-012>014-019>023-240300-
NORTHEAST ILLINOIS

CITY           SKY/WX    TMP DP  RH WIND       PRES   REMARKS
CHICAGO-OHARE  LGT RAIN  50  48  93 E6        29.26F FOG
CHICAGO-MIDWAY LGT RAIN  52  50  93 SE6       29.26F
AURORA         LGT RAIN  51  48  89 SE6       29.26F FOG
LANSING*       LGT RAIN  51  50  97 SE8       29.27F
JOLIET*        RAIN      49  49  97 SE5       29.26F
WAUKEGAN       RAIN      47  46  97 E6        29.27F FOG
DUPAGE AIRPORT RAIN      50  49  96 E5        29.26F FOG
KANKAKEE*      LGT RAIN  50  49  97 SE8       29.26F
WHEELING       LGT RAIN  49  48  97 VRB5      29.29F FOG
MORRIS*        RAIN      50  50 100 CALM      29.25F
NORTHERLY ISL    N/A     45  43  93 E5          N/A
$$

LMZ740>746-240300-
SOUTHERN LAKE MICHIGAN

STATION/POSITION SKY/WX   TEMP    WIND        PRES    VSBY  WAVE
                          AIR SEA DIR/SP/G                  HT/PER
                          (F)     (DEG/KT/KT) (MB)    (MI)  (FT/S)
SOUTHERN BUOY              47 42  110/ 12/ 14  992.7F         1/ 4
WAUKEGAN HARBOR            44      CALM  /  3   N/A
HARRISON CRIB              46     110/ 13/ 13   N/A
BURNHAM HARBOR             44      CALM  /  6   N/A
CALUMET HARBOR             50     130/  8/ 12  990.4F
MICHIGAN CITY              51      90/ 10/ 14   N/A
$$

ILZ025>027-034>036-040-047-049-050-058-095>099-240300-
WEST-CENTRAL ILLINOIS

CITY           SKY/WX    TMP DP  RH WIND       PRES   REMARKS
QUINCY         FOG       51  51 100 SW3       29.24F VSB 1/4
GALESBURG*     RAIN      49  48  98 SE3       29.24F
MACOMB*        CLOUDY    50  50 100 S5        29.27F FOG
JACKSONVILLE*  RAIN      53  51  95 S5        29.24F
PITTSFIELD*    CLOUDY    52  51  94 CALM      29.26F VSB 3/4
$$

ILZ028>032-037-038-041>044-048-051>054-059>061-240300-
CENTRAL ILLINOIS

CITY           SKY/WX    TMP DP  RH WIND       PRES   REMARKS
PONTIAC        RAIN      51  51 100 CALM      29.26F
BLOOMINGTON    LGT RAIN  50  50 100 S7        29.26F FOG
DECATUR        LGT RAIN  51  32  48 S5        29.25F
PEORIA         LGT RAIN  51  48  89 S6        29.25F FOG
LACON*         LGT RAIN  48  47  96 CALM      29.24F
LINCOLN*       RAIN      51  50  95 S3        29.25F
SPRINGFIELD    LGT RAIN  52  50  93 S6        29.26F
TAYLORVILLE    DRIZZLE   50  50 100 S5        29.25F
$$

ILZ033-039-045-046-055>057-062-063-240300-
EAST-CENTRAL ILLINOIS

CITY           SKY/WX    TMP DP  RH WIND       PRES   REMARKS
CHAMPAIGN      RAIN      51  51 100 S7        29.24F FOG
DANVILLE*      HVY RAIN  51  51  99 SE9       29.21F
MATTOON        RAIN      52  51  97 S8        29.23F
$$

ILZ079-100>102-240300-
SOUTHWEST ILLINOIS

CITY           SKY/WX    TMP DP  RH WIND       PRES   REMARKS
BELLEVILLE     CLOUDY    52  52 100 S6        29.26S FOG
CAHOKIA*       CLOUDY    54  53  97 S5        29.27S FOG
SPARTA*        CLOUDY    53  53 100 SW7       29.29S FOG
$$

ILZ064>066-069>071-074>076-080>082-084>086-088>090-092>094-240300-
SOUTH-CENTRAL ILLINOIS

CITY           SKY/WX    TMP DP  RH WIND       PRES   REMARKS
CARBONDALE     CLOUDY    54  53  97 SW10      29.29S
CAIRO*         CLOUDY    58  56  91 SW10      29.34R
EFFINGHAM*     CLOUDY    51  49  92 CALM      29.25F
MARION         CLOUDY    55  55 100 SW8       29.30R
MT. VERNON     CLOUDY    52  48  87 SW5       29.27S VSB 1
CENTRALIA*     CLOUDY    52  50  93 SW5       29.26F
SALEM*         LGT RAIN  54  52  94 CALM      29.26F
METROPOLIS*    CLOUDY    56  56 100 SW8       29.32R
$$

ILZ067-068-072-073-078-083-087-091-240300-
SOUTHEAST ILLINOIS

CITY           SKY/WX    TMP DP  RH WIND       PRES   REMARKS
LAWRENCEVILLE  RAIN      54  53  97 E3        29.24F FOG
FLORA*         RAIN      52  52  99 SW3       29.25F
FAIRFIELD*     RAIN      53  53  99 SW3       29.25S
HARRISBURG*    LGT RAIN  54  54 100 SW7       29.29R
ROBINSON*      RAIN      53  53  98 SE5       29.24F
CARMI*         LGT RAIN  57  57  99 SW7       29.25F
$$

ABBREVIATIONS USED IN REMARKS
   TC - TEMPERATURE IN CELSIUS
  WCI - WIND CHILL INDEX
   HX - HEAT INDEX
  VSB - VISIBILITY
$$



USA.gov is the U.S. government's official web portal to all federal, state and local government web resources and services.